Date String (YYYY-MM-DD hh:mm:ss) UTC,Instrument flags,absolute air pressure of the measurement (hPa),sample flow rate (lpm),inlet stack bypass flow (lpm),air temperature of the measurement (°C),ambient temperature measured by the external sensor (°C),aerosol sample conditioner tube jacket temperature (°C),OPC LED temperature (°C),internal box temperature (°C),relative humidity of the measurement (%),span deviation,mass concentration of particles derived from Lorenz-Mie calculation of OPC scattering (μg/m³),mass concentration of particles derived from Lorenz-Mie calculation of OPC scattering (μg/m³),mass concentration of particles derived from Lorenz-Mie calculation of OPC scattering (μg/m³)
DateTimeUTC,F1_M11,P_M11,Q1_M11,Q2_M11,T1_M11,T2_M11,T3_M11,T4_M11,T5_M11,U1_M11,ZSPAN_M11,X2_M11,X0_M11,X1_M11
2023-09-14 04:00:00,SystemResetWarning,0829.8,5.00,000.00,028.4,027.2,000.0,036.6,030.1,18.1,0000.0,0004.76,0009.47,0004.20
2023-09-14 04:01:00,SystemResetWarning,0829.8,5.00,000.00,028.4,027.3,000.0,036.6,030.1,17.7,0000.0,0004.78,0009.58,0004.19
2023-09-14 04:02:00,SystemResetWarning,0829.8,5.00,000.00,028.4,027.0,000.0,036.7,030.0,17.7,0000.0,0004.78,0009.57,0004.20
2023-09-14 04:03:00,SystemResetWarning,0829.8,5.00,000.00,028.3,025.2,000.0,036.6,029.4,17.9,0000.0,0004.79,0009.56,0004.21
2023-09-14 04:04:00,SystemResetWarning,0829.8,5.00,000.00,028.2,024.1,000.0,036.5,029.3,18.3,0000.0,0004.84,0009.67,0004.23
2023-09-14 04:05:00,SystemResetWarning,0829.8,5.01,000.00,028.1,024.2,000.0,036.5,029.2,18.3,0000.0,0004.83,0009.65,0004.25
2023-09-14 04:06:00,SystemResetWarning,0829.8,5.01,000.00,028.0,024.4,000.0,036.5,029.2,18.7,0000.0,0004.79,0009.99,0004.25
2023-09-14 04:07:00,SystemResetWarning,0829.8,5.00,000.00,027.9,024.8,000.0,036.5,029.2,18.1,0000.0,0004.78,0010.66,0004.26
2023-09-14 04:08:00,SystemResetWarning,0829.8,4.99,000.00,027.9,025.1,000.0,036.4,029.2,18.0,0000.0,0004.77,0010.33,0004.27
2023-09-14 04:09:00,SystemResetWarning,0829.8,5.00,000.00,027.9,025.4,000.0,036.4,029.3,18.2,0000.0,0004.80,0009.70,0004.28
2023-09-14 04:10:00,SystemResetWarning,0829.8,5.00,000.00,027.9,025.7,000.0,036.4,029.4,18.4,0000.0,0004.78,0009.64,0004.27
2023-09-14 04:11:00,SystemResetWarning,0829.8,5.01,000.00,027.9,025.9,000.0,036.4,029.4,17.8,0000.0,0004.79,0009.79,0004.29
2023-09-14 04:12:00,SystemResetWarning,0829.9,5.01,000.00,027.9,026.1,000.0,036.4,029.5,18.3,0000.0,0004.79,0009.73,0004.29
2023-09-14 04:13:00,SystemResetWarning,0829.9,4.99,000.00,027.9,026.2,000.0,036.4,029.5,18.5,0000.0,0004.78,0009.66,0004.29
2023-09-14 04:14:00,SystemResetWarning,0829.9,4.99,000.00,027.9,026.4,000.0,036.4,029.5,17.8,0000.0,0004.75,0009.72,0004.29
2023-09-14 04:15:00,SystemResetWarning,0829.9,4.99,000.00,028.0,026.5,000.0,036.4,029.6,17.9,0000.0,0004.71,0009.68,0004.28
2023-09-14 04:16:00,SystemResetWarning,0829.9,5.00,000.00,028.0,026.6,000.0,036.4,029.6,18.2,0000.0,0004.71,0009.63,0004.28
2023-09-14 04:17:00,SystemResetWarning,0829.9,5.00,000.00,028.0,026.7,000.0,036.4,029.7,18.3,0000.0,0004.71,0009.27,0004.27
2023-09-14 04:18:00,SystemResetWarning,0829.9,5.01,000.00,028.1,026.7,000.0,036.4,029.7,18.2,0000.0,0004.73,0008.65,0004.27
2023-09-14 04:19:00,SystemResetWarning,0829.9,5.00,000.00,028.1,026.8,000.0,036.4,029.7,17.9,0000.0,0004.74,0009.18,0004.26
2023-09-14 04:20:00,SystemResetWarning,0829.9,5.00,000.00,028.1,026.8,000.0,036.4,029.7,17.8,0000.0,0004.75,0009.15,0004.27
2023-09-14 04:21:00,SystemResetWarning,0829.9,5.00,000.00,028.1,026.9,000.0,036.4,029.8,17.8,0000.0,0004.74,0009.23,0004.27
2023-09-14 04:22:00,SystemResetWarning,0829.9,5.00,000.00,028.2,026.9,000.0,036.4,029.8,17.9,0000.0,0004.72,0009.47,0004.27
2023-09-14 04:23:00,SystemResetWarning,0829.9,5.00,000.00,028.2,026.9,000.0,036.5,029.8,17.9,0000.0,0004.70,0009.39,0004.27
2023-09-14 04:24:00,SystemResetWarning,0829.9,5.00,000.00,028.2,027.0,000.0,036.5,029.8,17.7,0000.0,0004.70,0009.48,0004.27
2023-09-14 04:25:00,SystemResetWarning,0829.9,5.00,000.00,028.2,027.0,000.0,036.5,029.9,17.9,0000.0,0004.68,0009.33,0004.27
2023-09-14 04:26:00,SystemResetWarning,0829.9,5.01,000.00,028.2,027.0,000.0,036.5,029.9,18.0,0000.0,0004.68,0009.28,0004.26
2023-09-14 04:27:00,SystemResetWarning,0829.9,5.01,000.00,028.3,027.1,000.0,036.5,029.9,17.6,0000.0,0004.69,0009.88,0004.26
2023-09-14 04:28:00,SystemResetWarning,0829.9,5.00,000.00,028.3,027.1,000.0,036.5,029.9,17.5,0000.0,0004.69,0009.96,0004.26
2023-09-14 04:29:00,SystemResetWarning,0829.9,5.00,000.00,028.3,027.1,000.0,036.5,030.0,17.6,0000.0,0004.68,0009.80,0004.27
2023-09-14 04:30:00,SystemResetWarning,0829.9,5.00,000.00,028.3,027.1,000.0,036.6,030.0,17.7,0000.0,0004.65,0009.32,0004.27
2023-09-14 04:31:00,SystemResetWarning,0829.9,5.00,000.00,028.3,027.1,000.0,036.6,030.0,17.6,0000.0,0004.63,0009.32,0004.27
2023-09-14 04:32:00,SystemResetWarning,0829.9,5.00,000.00,028.4,027.2,000.0,036.6,030.0,17.8,0000.0,0004.68,0009.14,0004.28
2023-09-14 04:33:00,SystemResetWarning,0830.0,5.00,000.00,028.4,027.2,000.0,036.6,030.0,18.4,0000.0,0004.71,0008.64,0004.27
2023-09-14 04:34:00,SystemResetWarning,0830.0,5.00,000.00,028.4,027.2,000.0,036.6,030.0,17.9,0000.0,0004.74,0008.95,0004.26
2023-09-14 04:35:00,SystemResetWarning,0830.0,4.99,000.00,028.4,027.2,000.0,036.7,030.1,17.8,0000.0,0004.73,0008.96,0004.25
2023-09-14 04:36:00,SystemResetWarning,0829.9,5.00,000.00,028.5,027.2,000.0,036.7,030.1,17.8,0000.0,0004.76,0009.31,0004.25
2023-09-14 04:37:00,SystemResetWarning,0830.0,5.00,000.00,028.5,027.3,000.0,036.7,030.1,17.5,0000.0,0004.76,0009.42,0004.25
2023-09-14 04:38:00,SystemResetWarning,0830.0,5.00,000.00,028.5,027.3,000.0,036.7,030.1,17.4,0000.0,0004.76,0009.00,0004.25
2023-09-14 04:39:00,SystemResetWarning,0830.0,5.00,000.00,028.5,027.3,000.0,036.7,030.1,17.4,0000.0,0004.77,0009.29,0004.25
2023-09-14 04:40:00,SystemResetWarning,0830.0,5.00,000.00,028.5,027.3,000.0,036.8,030.2,17.4,0000.0,0004.77,0009.27,0004.25
2023-09-14 04:41:00,SystemResetWarning,0830.0,5.01,000.00,028.5,027.3,000.0,036.8,030.2,17.3,0000.0,0004.82,0009.45,0004.26
2023-09-14 04:42:00,SystemResetWarning,0830.0,4.99,000.00,028.6,027.3,000.0,036.8,030.2,17.3,0000.0,0004.82,0009.44,0004.26
2023-09-14 04:43:00,SystemResetWarning,0830.0,5.02,000.00,028.6,027.3,000.0,036.8,030.2,17.3,0000.0,0004.81,0009.43,0004.27
2023-09-14 04:44:00,SystemResetWarning,0830.0,4.99,000.00,028.6,027.3,000.0,036.8,030.2,17.3,0000.0,0004.82,0010.10,0004.27
2023-09-14 04:45:00,SystemResetWarning,0830.0,4.99,000.00,028.6,027.2,000.0,036.8,030.2,17.4,0000.0,0004.85,0010.19,0004.28
2023-09-14 04:46:00,SystemResetWarning,0829.9,4.99,000.00,028.5,025.6,000.0,036.8,029.7,17.5,0000.0,0004.90,0010.32,0004.30
2023-09-14 04:47:00,SystemResetWarning,0829.9,5.00,000.00,028.4,024.3,000.0,036.7,029.4,17.6,0000.0,0004.92,0010.81,0004.31
2023-09-14 04:48:00,SystemResetWarning,0829.8,5.00,000.00,028.2,024.1,000.0,036.7,029.3,17.7,0000.0,0004.94,0010.88,0004.33
2023-09-14 04:49:00,SystemResetWarning,0829.8,5.02,000.00,028.1,024.4,000.0,036.6,029.3,18.1,0000.0,0004.94,0010.77,0004.34
2023-09-14 04:50:00,SystemResetWarning,0829.8,4.99,000.00,028.1,024.7,000.0,036.6,029.3,18.4,0000.0,0004.96,0010.47,0004.34
2023-09-14 04:51:00,SystemResetWarning,0829.8,5.00,000.00,028.1,025.1,000.0,036.6,029.3,18.7,0000.0,0004.96,0011.00,0004.34
2023-09-14 04:52:00,SystemResetWarning,0829.8,5.00,000.00,028.0,025.4,000.0,036.6,029.4,18.3,0000.0,0004.92,0010.99,0004.34
2023-09-14 04:53:00,SystemResetWarning,0829.9,5.00,000.00,028.0,025.7,000.0,036.6,029.4,18.5,0000.0,0004.93,0010.97,0004.34
2023-09-14 04:54:00,SystemResetWarning,0829.8,4.99,000.00,028.0,025.9,000.0,036.5,029.5,18.0,0000.0,0004.93,0011.03,0004.34
2023-09-14 04:55:00,SystemResetWarning,0829.8,4.99,000.00,028.0,026.1,000.0,036.5,029.5,18.2,0000.0,0004.92,0010.35,0004.35
2023-09-14 04:56:00,SystemResetWarning,0829.8,5.00,000.00,028.0,026.2,000.0,036.5,029.5,18.0,0000.0,0004.89,0010.31,0004.35
2023-09-14 04:57:00,SystemResetWarning,0829.8,5.01,000.00,028.0,026.3,000.0,036.5,029.6,17.8,0000.0,0004.87,0010.19,0004.35
2023-09-14 04:58:00,SystemResetWarning,0829.8,5.00,000.00,028.1,026.4,000.0,036.5,029.6,18.1,0000.0,0004.86,0009.63,0004.35
2023-09-14 04:59:00,SystemResetWarning,0829.8,5.00,000.00,028.1,026.5,000.0,036.5,029.6,18.0,0000.0,0004.85,0010.19,0004.35
